Location: Chevoux
(46.3801°N, 4.9476°E)
Time: 03:05:53
(UTC+00:00)

Courier 1B - Visible Passes

Search period start: 12 May 2021 00:00
Search period end: 22 May 2021 00:00
Orbit: 962 x 1209 km, 28.3° (Epoch: 11 May)

Date Brightness Start Highest point End Pass type
(mag) Time Alt. Az. Time Alt. Az. Time Alt. Az.
12 May 9.7 03:24:19 10° SSW 03:28:23 15° SSE 03:32:28 10° SE visible
13 May 9.7 02:31:50 10° S 02:34:49 13° SSE 02:37:50 10° SE visible
14 May 9.5 03:29:15 10° SSW 03:34:05 18° S 03:39:02 10° SE visible
15 May 9.4 02:37:09 12° SSW 02:40:30 16° SSE 02:44:56 10° SE visible
16 May 9.5 01:46:28 14° SSE 01:46:57 14° SSE 01:50:31 10° SE visible
17 May 9.3 02:42:41 13° SSW 02:46:15 18° S 02:51:12 10° SE visible
18 May 9.2 01:52:02 17° S 01:52:41 17° S 01:57:12 10° SE visible
19 May 9.6 01:01:26 13° SE 01:01:26 13° SE 01:02:59 10° SE visible
19 May 9.2 02:48:18 13° SW 02:52:03 19° S 02:57:02 10° SE visible
20 May 9.1 01:57:45 18° S 01:58:28 18° S 02:03:16 10° SE visible
21 May 9.4 01:07:16 15° SSE 01:07:16 15° SSE 01:09:23 10° SE visible
21 May 9.2 02:54:09 12° SW 02:57:50 17° S 03:02:24 10° SSE visible
